Zurück zum Katalog

NOAA 14

AktivWetterSSO
NORAD 23455·PAYLOAD·🇺🇸 United States

Gestartet Dec 30, 1994 von Vandenberg Space Force Base

Loading…

Nächste Überflüge (nächste 24 Stunden)

TLE

AktuellSource: Space-Track

Epoche: Sep 14, 2026, 14:17 UTC

1 23455U 94089A   26257.59558768  .00000020  00000-0  31908-4 0  9991
2 23455  98.5242 223.0954 0009302 180.2557 179.8614 14.14685015635845

Verfolge NOAA 14 in Echtzeit mit AllMySat

Download on the App Store